Simultaneous Nadir Overpasses (SNOs) Predictions

Prediction of SNOs between NOAA-19 and NPP Satellite Orbit:

Table of predicted SNOs for the next 14.0 days since TLE Epoch: 1/22/2016
Index Date (NOAA-19) Time (NOAA-19) Lat,Lon (NOAA-19) SZA (NOAA-19 ) Date (NPP) Time (NPP) Lat,Lon (NPP) SZA (NPP ) Distance(km) Time Diff (sec)
1 01/25/2016 02:04:50 -81.03, -84.67 76.01 01/25/2016 02:05:53 -81.03, -84.61 76.05 1.09 63
2 01/25/2016 02:55:51 81.03, 82.77 103.96 01/25/2016 02:56:38 81.02, 82.82 103.93 0.85 47
3 01/25/2016 03:46:52 -81.03,-110.08 76.04 01/25/2016 03:47:23 -81.03,-110.05 76.06 0.88 31
4 01/25/2016 04:37:53 81.03, 57.37 103.93 01/25/2016 04:38:08 81.03, 57.38 103.92 0.28 15
5 01/25/2016 05:28:53 -81.03,-135.11 76.12 01/25/2016 05:28:52 -81.02,-135.12 76.12 0.74 1
6 01/25/2016
